Regional Weather Roundup
Issued by NWS

Home | Current Version | Previous Version | Graphics & Text | Print | Product List | Glossary On
Versions: 1 2 3 4 5 6 7 8 9 10 11 12 13 14 15 16 17 18 19 20 21 22 23 24 25 26 27 28 29 30 31 32 33 34 35 36 37 38 39 40 41 42 43 44 45 46 47 48 49 50
000
ASUS43 KOAX 241602
RWRNE

WEATHER ROUNDUP FOR NEBRASKA
NATIONAL WEATHER SERVICE OMAHA NE
1100 AM CDT THU JUL 24 2014

NOTES: SATELLITE DATA IS BEING USED TO AUGMENT CLOUD COVER ABOVE
       12000 FEET.
       "FAIR" INDICATES FEW OR NO CLOUDS BELOW 12,000 FEET WITH NO
       SIGNIFICANT WEATHER AND/OR OBSTRUCTIONS TO VISIBILITY.

  * THESE STATIONS DO NOT REPORT WEATHER SUCH AS RAIN...SNOW OR FOG.

NEZ001>004-019>022-054>056-241700-
NEBRASKA PANHANDLE

CITY           SKY/WX    TMP DP  RH WIND       PRES   REMARKS
SCOTTSBLUFF    PTSUNNY   85  63  47 CALM      29.98F
ALLIANCE       SUNNY     87  62  43 SW13      29.97F
CHADRON        SUNNY     95  55  26 W12       29.86F HX  93
KIMBALL        SUNNY     91  46  21 W8        30.06S
SIDNEY         SUNNY     94  53  25 SW14      30.03F HX  91
$$

NEZ057>060-069>072-079>082-241700-
SOUTHWEST NEBRASKA

CITY           SKY/WX    TMP DP  RH WIND       PRES   REMARKS
NORTH PLATTE   SUNNY     81  66  60 S12       29.99F
IMPERIAL       SUNNY     88  62  41 S13       30.00F
LEXINGTON      SUNNY     80  67  63 SE20      30.02S
MCCOOK         SUNNY     83  68  60 S10       30.01S
OGALLALA       SUNNY     82  67  59 S9        29.98F
$$

NEZ005>010-023>029-035>040-094-241700-
NORTH CENTRAL NEBRASKA

CITY           SKY/WX    TMP DP  RH WIND       PRES   REMARKS
VALENTINE      MOSUNNY   85  67  54 S16       29.90F
AINSWORTH      SUNNY     79  65  61 S23       29.95F
BROKEN BOW     SUNNY     81  67  62 S17G28    30.01F
O`NEILL        SUNNY     78  62  57 SE24G31   30.01F
ORD            SUNNY     77  65  66 S16G25    30.01F
THEDFORD       SUNNY     83  67  59 S16G24    29.97F
$$

NEZ041-046>049-061>064-073>077-083>087-241700-
SOUTH CENTRAL NEBRASKA

CITY           SKY/WX    TMP DP  RH WIND       PRES   REMARKS
GRAND ISLAND   SUNNY     77  65  66 SE20G26   30.06F
AURORA         SUNNY     77  67  71 SE16G25   30.08S
HASTINGS       SUNNY     79  62  56 S18       30.06S
HEBRON         SUNNY     78  62  57 S13G18    30.09F
HOLDREGE       SUNNY     80  65  59 S20       30.04S
KEARNEY *      SUNNY     79  66  65 CALM      30.04F
YORK           SUNNY     75  66  73 SE18      30.09F
$$

NEZ011>018-030>034-042>045-241700-
NORTHEAST NEBRASKA

CITY           SKY/WX    TMP DP  RH WIND       PRES   REMARKS
NORFOLK        PTSUNNY   76  61  59 SE21      30.09F
ALBION         SUNNY     75  63  64 SE20      30.08S
BLAIR          PTSUNNY   72  61  69 E6        30.17S
COLUMBUS *     PTSUNNY   57  57 100 SE12G18   30.12R
FREMONT        PTSUNNY   75  61  60 SE14      30.15F
TEKAMAH        CLOUDY    71  64  78 SE12      30.13F
WAYNE          CLOUDY    73  64  73 S17G25    30.08F
$$

NEZ050>053-065>068-078-088>093-241700-
SOUTHEAST NEBRASKA

CITY           SKY/WX    TMP DP  RH WIND       PRES   REMARKS
LINCOLN        MOSUNNY   80  61  52 S14       30.13R
OMAHA EPPLEY   LGT RAIN  73  61  65 E9        30.17R
BEATRICE       SUNNY     77  64  63 S13G20    30.12S
FALLS CITY     SUNNY     78  61  55 SE12      30.14S
NEBRASKA CITY  MOSUNNY   75  58  55 S12       30.15S
PLATTSMOUTH    MOSUNNY   74  57  55 SE6       30.18R
$$

NEZ044-045-051>053-067-241700-
OMAHA AREA

CITY           SKY/WX    TMP DP  RH WIND       PRES   REMARKS
OMAHA EPPLEY   LGT RAIN  73  61  65 E9        30.17R
BLAIR          PTSUNNY   72  61  69 E6        30.17S
FREMONT        PTSUNNY   75  61  60 SE14      30.15F
MILLARD        PTSUNNY   74  60  62 E9        30.17R
OFFUTT AFB     PTSUNNY   74  62  66 E8        30.18R
PLATTSMOUTH    MOSUNNY   74  57  55 SE6       30.18R
WAHOO          FAIR      78  61  55 E12G17    30.16R
$$


USA.gov is the U.S. government's official web portal to all federal, state and local government web resources and services.